Regional Weather Roundup
Issued by NWS

Home | Current Version | Previous Version | Text Only | Print | Product List | Glossary On
Versions: 1 2 3 4 5 6 7 8 9 10 11 12 13 14 15 16 17 18 19 20 21 22 23 24 25 26 27 28 29 30 31 32 33 34 35 36 37 38 39 40 41 42 43 44 45 46 47 48 49 50
000
ASUS43 KLSX 272110
RWRMO

WEATHER SUMMARY FOR MISSOURI
NATIONAL WEATHER SERVICE SPRINGFIELD MO
400 PM CDT THU JUL 27 2017

NOTE: "FAIR" INDICATES FEW OR NO CLOUDS BELOW 12,000 FEET WITH NO
       SIGNIFICANT WEATHER AND/OR OBSTRUCTIONS TO VISIBILITY.
       CURRENT SKY AND/OR WEATHER CONDITIONS ARE NOT AVAILABLE FOR
       CHILLICOTHE AND FARMINGTON.

MOZ001>031-035>038-043-044-053-054-272200-
...NORTHERN AND WESTERN MISSOURI...

CITY           SKY/WX    TMP DP  RH WIND       PRES   REMARKS
KANSAS CTY INT PTSUNNY   85  73  67 N12       29.96S HX  91
LEE`S SUMMIT   PTSUNNY   85  76  74 N7        29.95F HX  94
ST JOSEPH      MOSUNNY   86  74  67 N8        29.96F HX  94
CHILLICOTHE      N/A     86  72  62 N7        29.95F HX  92
KIRKSVILLE     CLOUDY    83  71  67 NE12      29.96F

$$
MOZ066>068-077>081-088>096-101>105-272200-
...SOUTHWEST MISSOURI...

CITY           SKY/WX    TMP DP  RH WIND       PRES   REMARKS
SPRINGFIELD    CLOUDY    86  73  65 SW8       29.94F HX  93
JOPLIN         MOSUNNY   92  74  55 SW9       29.93F HX 101
BRANSON        CLOUDY    81  73  78 CALM      29.98F

$$
MOZ032>034-039>042-045>050-055>058-069>072-272200-
...CENTRAL MISSOURI...

CITY           SKY/WX    TMP DP  RH WIND       PRES   REMARKS
COLUMBIA       LGT RAIN  79  76  90 NW5       29.92F
JEFFERSON CITY CLOUDY    81  77  88 CALM      29.91F
ROLLA          CLOUDY    81  74  79 W9        29.94F
SEDALIA        CLOUDY    84  79  85 VRB5      29.94F HX  96
WHITEMAN AFB   PTSUNNY   83  82  96 N6        29.92F HX  99
WARRENSBURG    CLOUDY    81  73  78 N5        29.93F
OSAGE BEACH    CLOUDY    78  75  90 NE6       29.94F

$$
MOZ051-052-059>065-272200-
...EAST CENTRAL MISSOURI...

CITY           SKY/WX    TMP DP  RH WIND       PRES   REMARKS
ST LOUIS INTL  PTSUNNY   85  73  67 VRB6      29.89F HX  91
SPIRIT OF STL  CLOUDY    84  75  74 W12       29.88F HX  92
ST CHARLES     PTSUNNY   84  74  71 W6        29.87F HX  91

$$
MOZ072>076-082>087-097>100-106>115-272200-
...SOUTH CENTRAL AND SOUTHEAST MISSOURI...

CITY           SKY/WX    TMP DP  RH WIND       PRES   REMARKS
CAPE GIRARDEAU CLOUDY    85  73  67 W6        29.90F HX  91
FARMINGTON     CLOUDY    86  71  60 SW9G18    29.93F HX  91
POPLAR BLUFF   PTSUNNY   85  74  69 W6        29.90F HX  92
WEST PLAINS    CLOUDY    81  73  76 W5        29.97F

$$




USA.gov is the U.S. government's official web portal to all federal, state and local government web resources and services.